�N����,�~����,���ϋC��,�ō��C��,�Œ�C��,���x,�C��,�ő�����,���ϕ���,�ő�u�ԕ���,�ő厞����,����,�I�_���x,����,�Ǝ���,������,���ʏ���,�n�����x
"23/01/01",0.0,4.9,11.4,0.3,76.4,1018.1,WNW,1.6,7.2,NW,11.60,0.8,8.4,9.7,3.97,2.2,6.7
"23/01/02",0.0,4.7,8.6,0.8,82.7,1017.1,WNW,2.5,8.6,NNW,7.57,2.0,3.9,9.7,1.50,1.7,6.7
"23/01/03",0.0,3.9,9.8,-0.1,81.9,1015.8,NW,1.6,8.8,NNW,10.00,0.8,6.5,9.7,3.04,1.7,6.4
"23/01/04",1.0,3.4,8.7,-1.8,84.3,1016.3,NW,2.8,18.2,NNE,8.57,0.8,4.9,9.7,2.15,1.7,5.9
"23/01/05",0.0,4.2,9.0,0.3,83.9,1019.7,NW,2.1,11.0,NNW,10.16,1.6,6.7,9.7,3.19,1.8,6.2
"23/01/06",0.0,5.1,10.4,0.4,83.7,1016.1,WNW,2.0,7.1,NNW,9.62,2.4,6.0,9.7,2.87,1.8,6.6
"23/01/07",0.2,3.2,9.2,-1.5,92.1,1008.4,WNW,1.2,34.9,ESE,6.23,2.0,2.2,9.8,0.76,0.9,6.1
"23/01/08",0.2,6.4,12.4,2.7,84.7,1015.9,N,1.5,6.6,WSW,10.02,3.8,6.4,9.8,3.20,1.8,7.0
"23/01/09",0.4,6.2,13.2,-1.1,83.6,1015.5,NW,1.5,6.7,NNW,9.68,3.4,6.0,9.8,2.96,1.8,7.0
"23/01/10",0.2,5.0,7.6,0.7,74.9,1018.9,NW,3.2,11.2,NW,7.32,0.8,3.3,9.8,1.26,2.2,7.2
"23/01/11",0.0,2.8,11.7,-2.5,81.4,1020.2,NW,1.6,5.4,NNW,12.67,-0.4,9.1,9.8,4.83,2.0,6.1
"23/01/12",0.0,4.6,15.1,-2.6,83.6,1019.7,NW,1.6,3.6,NW,11.87,1.7,8.2,9.8,4.38,2.0,6.0
"23/01/13",6.8,7.8,14.7,0.7,90.9,1015.0,WNW,1.1,3.6,NW,5.95,6.3,1.7,9.9,0.77,1.0,6.8
"23/01/14",10.6,12.0,14.2,10.2,96.8,1005.4,WNW,1.2,8.5,NNW,3.39,11.6,0.0,9.9,-0.50,0.6,9.1
"23/01/15",0.2,10.8,13.3,7.6,84.5,1006.0,NW,2.1,6.4,NW,3.84,8.3,0.0,9.9,-0.54,1.3,9.9
"23/01/16",0.0,6.9,10.2,3.0,88.0,1007.9,NW,3.4,14.3,NNW,7.73,5.0,3.5,9.9,1.87,1.8,9.1
"23/01/17",0.0,4.8,9.0,2.1,80.7,1016.1,NW,2.0,6.4,NW,9.18,1.6,5.0,9.9,2.64,1.9,8.0
"23/01/18",0.0,5.6,11.0,1.9,80.0,1014.2,NW,2.9,8.9,NNW,10.00,2.3,5.8,10.0,3.20,2.3,7.7
"23/01/19",0.2,4.1,10.1,-0.6,83.2,1015.4,NW,1.4,5.7,NNW,8.09,1.3,3.7,10.0,1.97,1.4,7.2
"23/01/20",0.0,4.6,11.7,-1.9,78.8,1014.2,NW,2.4,15.9,NNW,12.78,0.8,8.6,10.0,5.02,2.5,6.6
"23/01/21",0.0,3.1,6.8,-0.2,80.7,1019.0,NNW,2.4,8.9,NNW,8.15,0.0,3.7,10.0,1.98,1.7,6.7
"23/01/22",0.2,2.9,8.4,-2.7,84.5,1019.5,NW,1.5,5.2,W,9.58,0.4,5.1,10.0,3.00,1.5,5.8
"23/01/23",1.2,5.2,8.3,3.3,89.5,1013.3,NW,2.0,7.0,N,4.87,3.7,0.2,10.1,0.00,1.0,6.8
"23/01/24",2.4,2.7,8.5,-3.0,90.3,1002.0,NW,4.8,47.9,S,6.28,1.2,1.6,10.1,0.89,1.4,6.8
"23/01/25",2.6,-1.6,0.6,-3.9,96.1,1013.0,WNW,3.6,46.3,S,10.74,-2.1,6.1,10.1,3.93,1.3,6.0
"23/01/26",0.8,0.2,5.6,-5.4,84.0,1015.5,WNW,2.2,8.9,N,14.00,-2.3,9.4,10.2,6.01,2.0,5.5
"23/01/27",8.4,1.2,2.8,-0.4,96.4,1004.1,WNW,1.5,12.5,NNW,1.69,0.7,0.0,10.2,-2.16,0.3,4.9
"23/01/28",7.2,1.7,4.8,-1.1,91.9,1006.2,N,1.8,19.7,ESE,14.04,0.5,9.2,10.2,6.19,1.9,4.8
"23/01/29",0.2,1.0,7.0,-2.3,82.8,1010.2,NW,2.3,34.7,ESE,13.87,-1.8,8.9,10.2,5.96,2.2,4.2
"23/01/30",0.4,1.5,6.7,-3.7,86.4,1010.2,NW,2.4,11.7,NW,10.59,-0.6,5.6,10.3,3.80,1.7,4.1
"23/01/31",0.0,2.4,7.8,-1.9,84.4,1014.0,NW,3.1,37.8,ESE,9.91,-0.1,4.9,10.3,3.34,1.9,4.8
"23/02/01",0.2,3.1,9.3,-3.3,88.1,1010.5,WNW,2.1,19.3,NE,5.75,1.2,0.7,10.3,0.57,1.1,4.5
"23/02/02",0.0,4.7,6.8,2.3,77.1,1015.2,NNW,2.3,11.4,NNW,7.66,1.0,2.6,10.3,1.75,1.9,5.7
"23/02/03",0.0,3.2,6.4,-0.3,83.1,1013.9,NW,1.7,5.5,NNW,4.40,0.5,0.0,10.4,-0.40,1.0,5.6
"23/02/04",0.0,4.0,12.0,-2.9,80.4,1013.5,NW,2.2,11.3,NNW,11.48,0.6,6.1,10.4,4.42,2.2,5.3
"23/02/05",0.0,4.9,11.2,-0.2,77.6,1017.0,NW,1.6,5.8,NW,9.55,1.0,4.2,10.4,3.09,1.9,6.1
"23/02/06",0.0,5.3,11.4,-0.8,78.3,1016.4,NW,1.9,5.6,NNW,12.04,1.6,6.5,10.5,4.83,2.3,6.1
"23/02/07",0.0,9.1,14.8,5.1,70.2,1012.8,NW,2.4,7.0,NNW,8.41,3.7,3.0,10.5,2.31,2.7,7.5
"23/02/08",0.0,6.4,10.5,2.7,85.2,1014.5,NNW,2.7,9.6,NNW,10.21,4.1,4.6,10.5,3.76,2.1,7.7
"23/02/09",0.0,4.3,8.2,1.2,76.5,1022.0,WNW,2.2,9.4,NNW,10.54,0.2,4.9,10.5,3.80,2.2,6.9
"23/02/10",11.4,5.4,7.7,2.2,89.9,1012.4,WNW,1.4,5.8,NW,1.57,3.8,0.0,10.6,-2.15,0.5,6.4
"23/02/11",0.2,8.5,13.4,5.5,79.7,1015.2,NW,2.8,7.1,NNW,14.91,5.0,8.8,10.6,7.00,3.3,7.9
"23/02/12",0.0,9.6,18.2,1.2,75.7,1015.7,NW,1.9,6.2,NW,15.21,5.1,8.9,10.6,7.18,3.2,8.5
"23/02/13",3.0,8.4,10.0,5.9,86.4,1006.0,NW,3.5,11.1,NNW,3.37,6.2,0.0,10.7,-0.80,1.4,8.8
"23/02/14",0.6,4.2,6.5,1.5,75.6,1009.9,NW,2.9,11.9,NW,9.44,0.2,3.5,10.7,3.09,2.3,7.7
"23/02/15",0.6,1.5,4.3,-1.0,84.9,1018.0,NNW,5.1,37.8,ESE,11.07,-0.8,4.9,10.7,4.35,2.3,6.6
"23/02/16",0.0,2.7,4.9,0.1,76.7,1023.7,NW,2.5,6.8,NW,3.81,-1.0,0.0,10.8,-0.84,1.4,6.1
"23/02/17",0.0,4.1,12.6,-3.3,79.6,1022.4,NW,1.8,6.3,NW,17.05,0.5,10.1,10.8,8.53,2.8,6.3
"23/02/18",0.6,6.5,10.1,1.4,90.5,1018.4,NW,1.1,3.5,NW,2.34,5.1,0.0,10.8,-1.53,0.5,7.0
"23/02/19",10.6,10.3,14.2,7.3,91.2,1007.3,NW,2.1,11.6,NNW,2.93,8.9,0.0,10.9,-0.88,0.9,8.5
"23/02/20",0.4,6.9,10.6,2.6,76.6,1011.5,NW,3.9,13.4,NW,14.00,2.9,7.1,10.9,6.45,3.5,8.2
"23/02/21",3.2,1.8,5.0,-0.3,90.7,1020.9,NW,2.1,37.4,ESE,17.34,0.5,9.9,11.0,8.98,2.4,7.0
"23/02/22",0.0,3.8,10.2,0.6,84.1,1024.5,NW,1.5,5.9,NW,14.49,1.2,7.3,11.0,6.90,2.2,7.1
"23/02/23",0.0,6.4,11.9,1.5,84.9,1017.5,NW,1.6,5.1,SW,10.47,3.9,3.8,11.0,4.14,1.8,7.8
"23/02/24",6.4,5.9,7.4,4.6,95.3,1014.2,WNW,1.3,4.9,NNW,2.28,5.3,0.0,11.1,-1.51,0.4,7.8
"23/02/25",0.0,3.6,7.0,-0.5,80.4,1019.1,NNW,2.4,12.5,NNW,15.02,0.4,7.5,11.1,7.27,2.7,7.3
"23/02/26",0.6,2.7,6.3,-1.0,85.8,1025.3,NNW,2.0,10.0,NNW,8.00,0.5,1.5,11.1,2.33,1.4,6.3
"23/02/27",0.2,6.3,15.4,-1.0,76.5,1027.5,NW,1.6,5.1,NW,19.94,2.0,11.2,11.2,10.78,3.5,7.1
"23/02/28",0.0,7.1,16.9,-0.7,73.6,1023.6,NW,1.6,6.8,SW,19.99,1.7,11.2,11.2,10.79,3.6,7.8
"23/03/01",0.0,10.9,18.7,2.7,73.7,1015.8,NW,1.6,6.2,SW,16.57,5.8,8.3,11.3,8.55,3.5,8.7
"23/03/02",2.8,7.2,12.7,2.8,83.1,1013.1,NW,2.8,17.5,NNW,12.12,4.5,4.5,11.4,5.44,2.6,9.3
"23/03/03",0.0,6.0,12.4,1.0,73.6,1020.4,NW,2.0,5.7,WSW,17.57,1.2,8.9,11.4,9.16,3.3,8.5
"23/03/04",0.0,7.2,14.1,0.7,72.4,1021.8,NNW,2.1,8.9,NNW,15.99,2.2,7.5,11.4,8.04,3.3,8.5
"23/03/05",0.0,7.3,14.6,2.0,71.8,1020.6,NW,2.7,9.4,NNW,18.21,2.2,9.3,11.5,9.65,4.0,8.7
"23/03/06",0.0,8.5,17.6,1.2,69.0,1017.9,NNW,2.2,6.7,WSW,21.23,2.4,11.5,11.5,11.80,4.5,9.1
"23/03/07",0.0,9.1,18.6,0.8,65.4,1017.5,NW,1.7,6.5,SSE,20.43,2.3,10.9,11.5,11.17,4.3,9.3
"23/03/08",0.0,10.6,20.9,1.5,67.5,1017.3,WNW,1.4,5.0,SSE,18.22,4.0,9.0,11.6,9.70,3.9,9.6
"23/03/09",0.0,13.5,20.7,4.4,72.3,1014.5,NW,1.9,9.4,W,14.35,8.1,5.8,11.6,7.19,3.7,10.4
"23/03/10",0.0,14.7,22.4,9.3,67.4,1015.2,NNW,2.1,9.0,NNW,16.17,8.0,7.2,11.7,8.44,4.5,11.8
"23/03/11",0.0,14.1,24.3,4.8,50.1,1018.9,NNW,1.9,7.3,NW,20.71,2.4,10.7,11.7,11.12,6.0,11.7
"23/03/12",0.0,15.3,22.3,6.7,70.5,1016.0,NW,1.7,6.0,ESE,16.98,9.5,7.7,11.7,9.18,4.3,12.2
"23/03/13",15.8,8.9,14.3,2.3,80.6,1012.2,NNW,2.7,11.9,NW,10.46,5.6,2.5,11.8,4.39,2.6,11.9
"23/03/14",0.0,8.1,17.7,0.3,70.1,1016.4,NW,1.6,4.8,SE,22.02,2.2,11.4,11.8,12.56,4.1,10.4
"23/03/15",0.0,11.2,20.9,1.8,67.7,1019.8,WNW,1.7,7.5,WSW,22.49,4.5,11.7,11.8,12.94,4.8,10.8
"23/03/16",0.2,14.0,21.7,6.5,75.2,1018.9,NW,2.0,8.6,WSW,18.35,9.2,8.4,11.9,10.29,4.3,11.9
"23/03/17",3.8,11.6,15.2,8.1,75.1,1017.2,NNW,2.8,9.1,NNW,11.52,7.2,3.1,11.9,5.21,3.3,12.4
"23/03/18",21.4,9.0,12.9,6.5,87.3,1009.8,NW,2.6,10.1,NNW,10.69,7.0,2.4,11.9,4.74,2.2,11.2
"23/03/19",0.2,9.6,17.6,3.0,67.5,1013.3,NNW,2.1,7.8,NNW,23.01,2.9,11.8,12.0,13.35,4.9,11.0
"23/03/20",0.0,10.5,19.7,1.1,57.3,1013.3,NW,1.7,7.5,SW,23.09,1.5,11.7,12.0,13.18,5.2,11.1
"23/03/21",5.6,11.0,15.8,6.0,86.8,1011.4,WNW,1.4,4.5,NNW,3.39,8.9,0.0,12.1,-0.48,1.0,11.2
"23/03/22",0.2,16.9,24.9,8.2,78.9,1009.6,ESE,1.6,6.6,ESE,24.23,12.8,12.1,12.1,14.99,5.3,12.9
"23/03/23",17.6,17.6,18.3,16.8,87.5,1003.7,ESE,1.5,6.3,ESE,1.49,15.4,0.0,12.1,-1.26,0.9,14.2
"23/03/24",0.0,16.5,19.2,13.0,85.9,1005.9,NW,2.4,7.4,NNW,7.46,14.1,0.0,12.2,2.95,2.2,14.6
"23/03/25",6.2,12.1,16.2,8.9,75.9,1011.3,NNW,2.4,9.6,NNW,12.15,7.7,3.2,12.2,5.80,3.3,13.5
"23/03/26",22.6,10.6,12.0,9.3,97.1,1007.9,WNW,1.6,7.1,NNW,3.52,10.2,0.0,12.2,-0.20,0.6,12.7
"23/03/27",0.2,10.5,15.7,6.1,74.4,1013.3,NNW,2.8,10.5,NW,21.06,5.7,9.7,12.3,12.25,4.8,12.4
"23/03/28",0.0,10.3,18.0,4.0,65.2,1017.1,NNW,2.5,12.1,NNW,24.29,3.1,12.0,12.3,14.41,5.6,12.2
"23/03/29",0.0,10.9,18.9,4.3,55.5,1016.8,NNW,3.0,9.7,NW,24.02,1.3,11.7,12.4,13.98,6.5,12.1
"23/03/30",0.0,12.0,21.0,3.3,54.9,1014.4,NW,1.9,6.6,NNW,22.85,2.2,10.8,12.4,13.14,5.7,12.3
"23/03/31",0.0,13.5,23.1,5.3,60.3,1012.8,NW,1.7,6.3,WSW,19.00,4.8,7.9,12.4,10.54,4.8,12.7
"23/04/01",0.0,15.2,25.1,7.3,54.0,1010.4,NNW,2.8,11.4,N,23.86,4.9,11.4,12.4,13.96,7.3,13.2
"23/04/02",0.4,13.6,20.4,8.9,69.8,1010.9,NNW,4.4,12.3,NW,16.56,8.1,6.1,12.5,9.04,5.6,13.3
"23/04/03",0.0,13.4,20.1,8.6,68.3,1016.2,NNW,3.5,11.2,NW,23.37,7.5,10.9,12.5,14.01,6.3,13.5
"23/04/04",0.0,14.8,23.0,6.9,69.4,1018.5,NW,2.4,7.2,WSW,24.01,8.6,11.3,12.5,14.60,6.0,13.9
"23/04/05",1.6,15.0,19.5,11.5,76.7,1017.1,WNW,1.4,5.2,ESE,7.17,10.6,0.0,12.6,2.42,2.2,14.2
"23/04/06",1.0,16.1,20.6,12.6,89.8,1010.8,WNW,1.3,3.5,NNW,6.33,14.4,0.0,12.6,2.24,1.5,14.6
"23/04/07",46.8,15.3,17.3,10.4,96.5,1004.6,NW,1.6,10.6,NNW,1.31,14.8,0.0,12.7,-1.41,0.4,15.2
"23/04/08",1.4,10.6,15.0,7.1,75.5,1007.2,NNW,3.6,14.0,NNW,17.85,6.2,6.7,12.7,10.05,4.5,13.6
"23/04/09",0.0,10.7,19.5,3.4,67.5,1013.4,NW,1.9,7.7,NNW,24.38,4.0,11.3,12.7,14.72,5.2,12.8
"23/04/10",0.0,13.6,21.9,3.5,64.4,1013.7,WNW,1.8,8.2,S,25.80,6.1,12.2,12.8,15.81,6.0,13.0
"23/04/11",0.2,16.6,23.8,8.4,70.2,1012.0,NW,2.1,9.1,WNW,19.73,10.7,7.9,12.8,11.68,5.2,14.2
"23/04/12",1.2,14.0,19.0,7.4,81.8,1009.4,NNW,1.9,9.7,N,7.20,11.0,0.0,12.8,2.52,2.1,14.6
"23/04/13",0.0,13.1,22.3,4.1,63.6,1013.4,NW,2.2,7.0,NW,24.66,5.1,11.3,12.9,14.96,6.0,13.7
"23/04/14",0.2,15.5,23.2,7.5,67.1,1012.2,WNW,1.5,6.2,NNW,16.94,8.8,5.8,12.9,9.47,4.3,14.3
"23/04/15",27.0,13.7,14.4,12.6,96.6,1000.1,WNW,1.0,3.9,NW,1.45,13.2,0.0,12.9,-1.46,0.3,14.4
"23/04/16",1.0,15.3,20.9,11.0,79.2,997.0,NW,2.2,10.9,NNW,19.32,11.3,7.4,13.0,11.59,4.5,15.0
"23/04/17",0.6,12.3,17.6,8.3,74.7,1009.5,NNW,2.9,12.9,NNW,21.56,7.6,8.9,13.0,12.97,5.2,14.6
"23/04/18",1.0,13.7,20.5,6.2,77.5,1012.3,WNW,2.1,8.7,SSW,15.89,9.4,4.9,13.0,8.90,3.8,14.1
"23/04/19",3.2,17.2,22.3,14.2,92.0,1007.8,WNW,1.0,4.5,NNW,6.24,15.9,0.0,13.1,2.39,1.3,15.4
"23/04/20",0.0,20.4,29.0,14.9,79.0,1005.2,NW,1.4,5.1,SE,21.64,16.1,8.8,13.1,13.84,5.0,17.2
"23/04/21",0.0,17.2,24.8,12.1,75.5,1003.4,N,2.6,11.9,NNW,18.22,12.7,6.4,13.1,10.87,5.0,17.3
"23/04/22",0.0,12.5,17.3,7.9,50.9,1011.2,NNW,3.1,12.4,NW,25.43,2.1,11.4,13.2,15.23,7.5,15.4
"23/04/23",0.0,13.0,21.0,6.0,53.4,1015.9,NW,2.9,11.1,NNW,24.65,2.3,10.8,13.2,14.75,7.1,14.4
"23/04/24",0.0,12.3,16.3,9.0,42.4,1018.5,NW,2.6,8.3,N,8.86,-0.6,0.0,13.2,2.64,5.0,13.8
"23/04/25",12.8,11.5,14.4,6.9,80.8,1013.7,ESE,2.0,6.2,NW,2.35,8.3,0.0,13.3,-1.28,1.3,12.8
"23/04/26",27.6,13.6,16.1,8.6,91.3,1004.0,NW,1.7,10.3,NW,5.51,12.3,0.0,13.3,1.48,1.3,14.0
"23/04/27",0.4,14.6,22.4,7.5,76.3,1014.8,WNW,1.7,6.5,NNW,25.63,9.8,11.3,13.3,16.28,5.4,14.4
"23/04/28",0.0,16.7,24.8,7.7,68.0,1015.6,NW,1.7,6.5,SSW,24.97,9.6,10.8,13.4,15.68,6.0,15.2
"23/04/29",12.0,17.1,23.6,10.4,80.1,1008.8,NW,1.4,5.4,SSE,11.92,13.3,1.8,13.4,6.33,2.9,15.6
"23/04/30",20.4,17.2,21.3,10.5,86.9,1002.3,NW,1.5,6.2,NNW,10.28,14.9,0.6,13.4,5.31,2.4,16.6
"23/05/01",1.6,14.2,24.1,7.4,75.5,1008.9,NNW,2.3,8.8,NNW,19.50,9.2,6.9,13.5,11.67,4.7,15.7
"23/05/02",0.2,14.0,20.6,6.6,64.3,1018.1,NNW,2.5,11.2,NW,28.07,6.1,12.8,13.5,17.77,6.9,15.1
"23/05/03",0.0,17.1,24.8,7.7,60.7,1019.2,NW,2.0,7.8,SW,24.73,8.6,10.5,13.5,15.32,6.6,15.4
"23/05/04",0.0,19.3,25.8,12.5,67.6,1014.7,NW,2.0,6.6,SE,26.10,12.7,11.4,13.6,16.76,6.8,16.9
"23/05/05",0.0,20.2,25.8,13.2,68.5,1009.4,WNW,1.9,7.9,NW,18.28,13.9,6.0,13.6,11.04,5.4,17.4
"23/05/06",0.0,20.9,26.3,15.8,77.7,1004.4,NNW,1.3,7.5,SSW,9.58,16.7,0.0,13.6,4.94,2.9,17.8
"23/05/07",0.4,17.8,20.2,14.5,97.5,999.9,NW,1.5,6.8,NNW,3.45,17.4,0.0,13.6,0.54,0.7,18.0
"23/05/08",0.4,14.5,16.6,12.8,79.5,1003.9,NW,2.7,12.9,NNW,14.79,10.9,3.5,13.7,8.29,3.9,16.7
"23/05/09",0.0,17.0,25.3,9.8,61.9,1008.8,NNW,2.0,11.4,NNW,27.71,8.9,12.3,13.7,17.64,7.1,16.5
"23/05/10",0.2,17.6,26.2,8.6,55.0,1009.4,NNW,2.3,8.7,NNW,27.04,6.9,11.8,13.7,16.92,7.8,16.7
"23/05/11",0.0,17.1,23.6,11.9,52.3,1013.2,NNW,2.8,9.8,N,27.49,6.1,12.1,13.8,17.13,8.5,16.7
"23/05/12",0.0,17.1,26.1,7.6,50.5,1013.4,NNW,2.0,7.2,SSW,27.54,5.1,12.1,13.8,17.11,7.7,16.5
"23/05/13",0.0,17.2,23.9,12.9,77.7,1012.1,WNW,1.2,6.8,S,11.12,12.8,1.0,13.8,5.72,2.8,16.7
"23/05/14",0.0,16.5,19.0,14.5,92.7,1006.7,WNW,1.2,5.1,E,6.83,15.3,0.0,13.8,2.83,1.4,16.8
"23/05/15",0.0,18.8,25.9,13.6,80.9,1004.2,NNW,1.5,8.0,NNW,22.20,15.2,8.4,13.9,14.33,5.0,17.5
"23/05/16",8.2,20.5,29.0,12.1,69.4,1006.9,NW,1.7,6.7,SE,26.52,14.0,11.3,13.9,17.34,6.7,18.0
"23/05/17",0.0,22.8,32.4,13.6,67.7,1009.9,NW,1.4,5.8,SE,25.69,15.8,10.8,13.9,16.90,6.7,18.7
"23/05/18",0.0,22.5,31.3,14.5,63.4,1009.2,NW,1.5,7.8,SSW,21.28,14.4,7.8,13.9,13.38,6.2,19.0
"23/05/19",34.2,18.0,20.8,17.2,93.3,1003.5,NW,1.2,4.0,NW,3.99,16.9,0.0,14.0,0.88,1.0,18.7
"23/05/20",0.0,18.9,22.7,15.0,84.1,1003.1,NNW,2.5,9.3,NW,20.58,16.1,7.3,14.0,13.25,5.0,18.7
"23/05/21",0.0,21.6,28.5,14.5,75.0,1002.7,NW,1.3,5.2,NNW,22.69,16.5,8.7,14.0,14.82,5.5,19.2
"23/05/22",1.2,21.1,28.8,14.7,73.5,1000.1,NNW,1.9,10.4,NNW,18.32,15.9,5.7,14.0,11.43,5.2,19.7
"23/05/23",1.2,16.9,21.5,13.1,76.1,999.8,NNW,2.4,11.4,NW,21.23,12.3,7.6,14.0,13.30,5.4,19.1
"23/05/24",1.0,16.5,22.7,11.7,68.4,1007.7,NW,3.1,12.6,NNW,28.09,10.1,12.3,14.1,18.21,7.5,17.8
"23/05/25",8.8,17.8,25.4,12.6,79.2,1014.3,WNW,1.4,6.0,SSW,15.08,13.9,3.5,14.1,8.84,3.6,17.8
"23/05/26",0.0,19.6,25.4,15.0,82.9,1017.1,NW,1.1,4.5,NNW,10.16,16.4,0.1,14.1,5.43,2.5,18.3
"23/05/27",0.0,22.4,28.4,16.7,74.3,1015.9,WNW,1.3,5.5,SW,23.95,17.2,9.4,14.1,15.86,5.8,19.4
"23/05/28",0.0,22.4,26.9,18.4,74.0,1012.4,NW,1.3,6.2,NW,15.86,17.3,4.0,14.1,9.76,4.4,19.9
"23/05/29",37.8,21.7,23.4,20.3,92.5,1006.4,NW,0.8,3.9,NNW,4.84,20.5,0.0,14.2,2.01,1.2,20.2
"23/05/30",7.8,21.2,26.9,18.3,84.0,1004.1,NNW,1.8,9.3,NNW,14.70,18.2,3.2,14.2,9.10,3.8,20.5
"23/05/31",0.4,19.8,26.8,15.0,71.6,1005.3,NNW,2.0,6.6,NNW,12.92,14.0,1.9,14.2,7.17,4.3,19.7
"23/06/01",6.0,20.5,26.1,12.0,78.9,1005.3,WNW,1.2,4.5,NNW,9.80,16.6,0.0,14.2,5.15,2.7,19.0
"23/06/02",89.6,20.8,21.5,19.6,96.8,996.8,NNW,0.7,3.4,NNW,0.75,20.3,0.0,14.2,-1.10,0.3,19.8
"23/06/03",0.0,19.5,23.6,13.7,77.4,998.4,NNW,2.2,11.8,NNW,25.50,15.1,10.4,14.2,16.84,6.3,19.9
"23/06/04",0.0,20.3,27.9,12.1,69.8,1004.1,NW,1.7,6.8,SW,22.17,13.9,8.2,14.2,14.13,5.9,19.1
"23/06/05",0.0,21.7,28.4,15.5,68.5,1004.8,NW,1.3,5.4,SSW,18.54,15.3,5.7,14.3,11.50,5.1,19.7
"23/06/06",2.4,18.6,22.8,15.6,82.9,1003.6,NW,1.2,5.1,SW,6.89,15.6,0.0,14.3,2.86,2.0,19.1
"23/06/07",0.4,21.8,27.4,16.6,79.0,1003.3,NW,1.4,6.0,NNW,21.17,17.6,7.5,14.3,13.90,5.1,19.8
"23/06/08",13.4,20.5,25.1,16.3,86.4,1003.9,NW,0.8,4.8,SSE,5.69,18.1,0.0,14.3,2.29,1.5,19.5
"23/06/09",15.8,22.0,26.3,18.4,85.8,999.2,WNW,1.4,5.6,SW,14.72,19.4,3.1,14.3,9.31,3.5,20.1
"23/06/10",0.0,22.9,27.8,17.1,80.8,1004.5,NW,1.1,4.1,S,11.86,19.2,1.2,14.3,7.08,3.1,20.3
"23/06/11",9.0,22.0,25.0,20.0,90.3,1004.5,NNW,0.8,2.8,SE,6.18,20.4,0.0,14.3,3.00,1.5,20.6
"23/06/12",1.4,22.6,25.1,20.6,90.5,1001.2,NW,0.9,4.5,NNW,5.20,21.0,0.0,14.3,2.36,1.4,20.8
"23/06/13",0.2,24.1,29.3,19.2,81.8,999.0,NNW,1.5,6.3,SW,16.13,20.7,4.1,14.3,10.53,4.3,21.2
"23/06/14",2.8,23.3,28.7,20.8,88.6,999.9,NW,1.1,4.4,NNW,8.17,21.3,0.0,14.3,4.65,2.1,21.5
"23/06/15",0.2,23.3,26.4,20.1,84.8,1000.9,NW,1.2,6.5,NNW,8.20,20.5,0.0,14.3,4.53,2.3,21.4
"23/06/16",0.0,23.0,29.3,17.5,74.1,1005.5,NW,1.7,8.0,NW,21.52,17.8,7.7,14.3,14.13,5.9,21.2
"23/06/17",0.0,25.0,32.6,17.2,67.4,1007.8,NNW,1.4,5.6,SSW,26.13,17.9,10.8,14.4,17.57,7.1,21.5
"23/06/18",0.0,24.0,31.4,17.6,71.3,1002.1,NNW,1.1,4.8,NNW,12.84,18.3,1.8,14.4,7.61,3.9,21.4
"23/06/19",0.0,23.8,29.7,19.4,66.7,999.3,NNW,2.5,9.6,NNW,25.52,17.0,10.4,14.4,16.92,8.0,21.4
"23/06/20",0.0,23.1,28.3,17.5,75.7,1002.7,E,1.6,5.9,NNW,11.16,18.5,0.7,14.4,6.40,3.6,21.0
"23/06/21",0.0,23.7,26.4,21.0,73.8,1003.6,SE,1.1,6.4,ESE,6.72,18.7,0.0,14.4,3.06,2.6,21.2
"23/06/22",27.2,20.5,23.0,18.1,86.5,1000.9,SE,0.8,4.8,SSW,5.33,18.1,0.0,14.4,2.02,1.5,20.4
"23/06/23",1.2,22.4,27.7,19.4,88.2,1002.6,NNW,0.9,5.8,NNW,10.48,20.3,0.2,14.4,6.24,2.4,20.8
"23/06/24",0.0,24.7,29.8,20.9,76.8,1008.0,NNW,1.2,6.2,NNW,14.77,20.1,3.1,14.4,9.39,4.2,21.5
"23/06/25",0.0,24.5,31.0,19.1,76.9,1009.3,NNW,1.2,4.4,SW,16.36,19.9,4.2,14.4,10.56,4.4,21.7
"23/06/26",18.4,23.1,26.5,19.9,90.1,1009.0,NW,0.7,2.8,N,6.94,21.4,0.0,14.3,3.73,1.7,21.6
"23/06/27",0.2,26.5,32.2,22.1,83.1,1008.4,NW,1.0,5.5,SW,15.35,23.2,3.5,14.3,10.40,3.9,22.5
"23/06/28",1.8,25.9,31.0,22.6,83.7,1006.1,NW,0.9,7.3,NW,12.32,22.8,1.5,14.3,8.02,3.2,23.0
"23/06/29",10.4,26.9,33.2,22.5,83.0,1002.2,NW,1.0,6.8,SW,18.67,23.4,5.8,14.3,12.96,4.6,23.2
"23/06/30",5.2,25.8,29.0,23.7,91.2,999.8,NW,0.8,6.8,SSW,9.60,24.3,0.0,14.3,6.26,2.3,23.5
"23/07/01",9.4,24.0,25.9,22.9,95.2,999.7,NNW,0.6,4.0,SW,4.73,23.2,0.0,14.3,2.39,1.0,23.3
"23/07/02",0.2,27.0,33.3,22.8,80.7,1003.2,NW,1.1,4.8,NW,21.45,23.1,7.7,14.3,14.97,5.3,23.5
"23/07/03",0.0,27.6,32.6,22.3,79.0,1001.6,NNW,1.1,6.5,SSW,15.78,23.4,3.9,14.3,10.72,4.3,23.8
"23/07/04",0.0,28.0,35.1,21.2,70.1,998.3,NNW,1.3,5.1,SSW,24.69,21.6,9.9,14.3,17.05,6.9,24.2
"23/07/05",16.2,24.2,28.3,22.6,87.5,995.4,WNW,0.9,5.0,ESE,3.66,22.0,0.0,14.3,1.33,1.3,23.6
"23/07/06",0.0,27.4,34.7,21.6,80.4,998.6,NW,0.9,5.1,SSW,21.69,23.2,7.9,14.3,15.19,5.3,24.1
"23/07/07",5.0,27.7,35.9,20.9,76.6,1002.0,NW,1.0,5.9,SSW,19.89,22.6,6.7,14.3,13.71,5.3,24.3
"23/07/08",0.0,27.2,29.4,24.7,86.9,1000.3,NW,1.1,5.9,WSW,3.41,24.8,0.0,14.2,1.66,1.4,24.5
"23/07/09",17.0,26.2,28.1,24.5,92.0,1001.3,NNW,0.7,5.8,NNW,6.32,24.8,0.0,14.2,3.87,1.5,24.4
"23/07/10",7.8,26.9,33.5,23.1,88.5,1002.8,NNW,0.9,26.3,S,9.94,24.8,0.0,14.2,6.60,2.6,24.7
"23/07/11",0.2,27.9,34.3,22.2,77.7,1004.2,WNW,1.2,7.4,SW,19.32,23.3,6.3,14.2,13.36,5.2,24.8
"23/07/12",5.6,26.8,33.4,22.7,83.9,1002.9,WNW,1.1,8.9,NNW,16.19,23.6,4.2,14.2,11.08,4.1,24.7
"23/07/13",20.0,24.7,27.5,23.3,94.7,1003.1,NW,0.6,3.9,NW,3.25,23.9,0.0,14.2,1.37,0.8,24.2
"23/07/14",0.0,26.3,31.5,22.8,86.8,1003.4,NW,0.9,7.7,SW,9.84,23.8,0.0,14.2,6.33,2.6,24.3
"23/07/15",0.0,28.4,33.0,23.8,79.2,1003.4,NW,1.3,8.0,WSW,18.94,24.3,6.1,14.1,13.23,5.3,24.9
"23/07/16",1.2,29.7,35.0,25.2,70.8,1006.4,NNW,1.3,7.4,SW,21.58,23.4,7.9,14.1,15.00,6.5,25.5
"23/07/17",0.0,30.1,36.3,22.6,72.2,1008.7,NNW,1.1,6.0,SSW,24.55,24.2,10.0,14.1,17.38,6.9,25.6
"23/07/18",0.0,30.0,36.1,23.9,72.7,1007.2,NW,0.9,3.9,NNW,17.92,24.3,5.5,14.1,12.43,5.3,25.9
"23/07/19",0.2,26.9,31.7,23.4,82.4,1000.8,NW,1.1,7.2,NNW,9.41,23.5,0.0,14.1,5.92,2.9,25.2
"23/07/20",0.2,26.5,32.5,21.7,73.2,1001.8,NNW,1.6,7.9,NNW,22.87,20.9,8.9,14.0,15.54,6.5,25.0
"23/07/21",0.0,28.0,35.3,21.4,67.4,1007.4,NNW,1.2,5.9,SSW,24.25,20.6,9.8,14.0,16.50,6.9,24.7
"23/07/22",0.0,29.0,36.9,22.7,70.1,1010.8,NW,1.1,5.6,SW,23.23,22.5,9.1,14.0,16.06,6.5,25.2
"23/07/23",0.0,29.6,35.2,24.2,68.1,1009.4,NW,1.1,5.5,SSW,22.20,22.8,8.5,14.0,15.28,6.5,25.6
"23/07/24",0.0,29.6,35.4,23.9,67.1,1008.7,NNW,1.0,5.0,NNW,21.18,22.5,7.8,13.9,14.46,6.2,25.6
"23/07/25",0.0,29.7,35.9,23.6,70.6,1010.1,NNW,1.0,5.7,SW,17.25,23.5,5.1,13.9,11.72,5.2,25.6
"23/07/26",0.0,30.6,39.0,24.8,70.9,1010.5,NNW,1.2,4.8,NNW,22.73,24.2,8.9,13.9,15.99,6.7,26.2
"23/07/27",0.0,30.9,39.0,25.3,70.3,1009.5,NNW,1.2,7.3,NNW,21.19,24.4,7.9,13.9,14.87,6.4,26.6
"23/07/28",0.0,30.8,37.9,25.2,71.0,1009.7,NW,1.1,4.8,SSW,19.86,24.5,7.0,13.9,13.89,6.0,26.6
"23/07/29",0.0,31.1,37.2,26.3,63.5,1010.7,NNW,1.3,6.7,SW,23.80,22.7,9.7,13.8,16.43,7.6,26.8
"23/07/30",0.0,30.4,36.2,24.6,66.4,1010.2,NNW,1.0,5.1,SW,19.00,23.1,6.4,13.8,12.90,6.0,26.5
"23/07/31",0.4,29.4,34.9,25.3,71.7,1008.2,NNW,1.1,4.9,NNW,15.03,23.5,3.7,13.8,10.05,4.8,26.4
"23/08/01",0.0,30.7,38.2,24.4,66.4,1007.0,NW,1.2,7.0,SW,22.33,23.1,8.7,13.8,15.42,6.9,26.6
"23/08/02",0.0,30.7,37.5,23.4,65.2,1005.8,NW,1.2,6.2,SW,23.29,22.9,9.4,13.7,16.06,7.2,26.6
"23/08/03",0.0,30.7,36.8,24.6,66.5,1004.3,NW,1.4,7.4,SSW,22.90,23.2,9.2,13.7,15.83,7.2,26.9
"23/08/04",0.0,30.8,37.1,25.6,67.3,1001.8,NW,1.2,5.8,SW,20.12,23.6,7.3,13.7,13.83,6.5,27.1
"23/08/05",0.0,31.2,37.7,25.6,67.4,997.7,ESE,1.0,5.8,SW,16.19,24.1,4.6,13.7,11.00,5.4,27.1
"23/08/06",0.0,30.1,34.3,26.8,71.3,994.8,ESE,1.1,7.9,SE,10.26,24.3,0.6,13.6,6.58,3.9,26.8
"23/08/07",0.0,28.7,31.0,26.2,78.0,996.3,E,1.0,5.1,SE,6.47,24.4,0.0,13.6,3.82,2.6,26.3
"23/08/08",4.6,28.7,31.3,26.1,79.2,999.0,E,1.2,6.4,ESE,8.77,24.7,0.0,13.6,5.60,3.1,26.2
"23/08/09",1.2,29.1,31.1,27.8,80.6,1000.7,E,0.9,4.5,ESE,5.26,25.5,0.0,13.5,3.12,2.2,26.2
"23/08/10",0.4,30.3,33.8,26.9,70.5,1001.1,ESE,1.8,9.0,SSE,19.09,24.1,6.7,13.5,13.11,6.6,26.6
"23/08/11",0.0,30.3,36.0,25.4,67.2,1000.4,ESE,1.0,4.4,SE,14.24,23.2,3.4,13.5,9.32,5.0,26.7
"23/08/12",0.0,30.5,38.9,23.2,65.1,998.6,NNW,1.3,5.5,NNE,23.38,22.3,9.8,13.4,16.00,7.4,26.8
"23/08/13",2.4,30.6,38.9,25.0,67.3,997.7,NNW,1.4,7.0,N,17.62,23.4,5.8,13.4,11.87,6.2,27.0
"23/08/14",2.6,28.7,33.6,24.2,78.7,994.8,N,1.6,8.6,NNE,11.22,24.5,1.4,13.4,7.38,4.0,26.5
"23/08/15",115.8,25.7,28.0,24.9,91.5,988.9,SSE,1.9,12.3,N,0.38,24.3,0.0,13.4,-0.73,0.7,25.3
"23/08/16",51.2,28.7,34.6,24.6,82.2,997.5,WSW,1.1,8.2,SSW,17.90,25.1,6.1,13.3,12.51,4.7,26.1
"23/08/17",4.2,28.4,32.4,25.2,81.9,1000.8,NNW,0.8,7.1,SSW,12.43,24.9,2.3,13.3,8.36,3.4,26.7
"23/08/18",0.0,28.4,33.7,24.4,80.2,1004.1,NW,0.8,4.7,SW,12.34,24.6,2.3,13.3,8.21,3.5,26.7
"23/08/19",0.0,30.7,36.7,25.9,76.0,1005.9,NW,0.9,6.0,SW,20.47,25.7,8.0,13.2,14.46,5.6,27.5
"23/08/20",0.0,30.8,37.5,26.0,75.2,1005.7,NNW,1.0,5.4,NNW,18.35,25.7,6.6,13.2,12.86,5.3,27.8
"23/08/21",0.0,31.1,37.2,26.8,71.1,1004.3,SE,1.0,4.2,SSW,16.77,25.0,5.5,13.2,11.51,5.3,27.9
"23/08/22",0.2,29.7,33.9,25.3,75.8,1003.2,SE,1.1,5.7,SE,12.18,24.9,2.3,13.1,8.09,4.0,27.3
"23/08/23",0.4,29.4,32.3,27.0,77.5,1003.3,E,1.0,5.4,SE,10.80,25.0,1.4,13.1,7.09,3.5,27.2
"23/08/24",16.2,26.8,33.0,23.7,87.8,1005.5,WNW,0.6,5.4,SSW,6.26,24.6,0.0,13.1,3.69,1.7,26.7
"23/08/25",11.0,27.3,33.2,24.1,86.6,1004.8,NW,0.8,6.3,SSW,13.53,24.6,3.3,13.0,9.11,3.3,26.5
"23/08/26",0.0,29.0,35.9,23.3,76.1,1003.8,NW,0.8,4.1,SE,17.74,24.0,6.4,13.0,12.04,4.8,26.7
"23/08/27",0.0,28.9,35.8,23.2,72.7,1002.2,NW,0.9,4.0,E,19.08,23.2,7.4,13.0,12.83,5.4,26.8
"23/08/28",0.0,28.6,35.0,24.1,76.8,1003.3,NNW,1.1,9.0,SW,15.94,23.7,5.2,12.9,10.66,4.6,26.7
"23/08/29",0.0,29.2,35.9,23.7,72.1,1006.9,NW,1.2,7.1,SW,20.50,23.2,8.5,12.9,13.88,6.0,26.8
"23/08/30",0.0,28.5,32.8,23.6,76.5,1007.8,SSE,1.0,5.1,SSE,7.10,23.9,0.0,12.9,4.11,2.8,26.4
"23/08/31",0.0,29.1,33.5,24.3,70.5,1008.6,SSE,1.2,5.9,SSW,12.35,23.0,2.7,12.8,7.76,4.5,26.3
"23/09/01",0.0,29.0,35.9,23.0,68.9,1008.4,NW,1.1,7.1,SSW,19.55,22.2,7.9,12.8,12.93,5.8,26.3
"23/09/02",0.0,27.6,33.1,22.6,75.1,1007.1,NNW,0.9,3.4,NNW,12.78,22.5,3.1,12.8,8.04,3.9,26.0
"23/09/03",0.0,29.5,37.5,23.4,66.9,1006.3,NNW,1.3,5.4,SW,20.63,22.0,8.8,12.7,13.67,6.4,26.3
"23/09/04",0.0,29.0,33.9,24.1,74.1,1002.8,N,1.3,6.6,NNW,13.63,23.7,3.8,12.7,8.85,4.5,26.3
"23/09/05",0.0,29.7,35.3,25.4,72.2,1002.6,WNW,1.2,5.6,SSW,16.42,23.8,5.8,12.7,10.92,5.2,26.8
"23/09/06",5.6,26.3,30.7,22.8,81.9,1001.2,NNW,1.1,4.8,NNW,7.70,22.9,0.0,12.6,4.36,2.5,26.0
"23/09/07",11.4,25.4,30.6,21.1,80.7,1003.2,NNW,1.3,7.1,N,8.80,21.6,0.4,12.6,4.97,2.9,24.9
"23/09/08",1.6,25.2,30.5,22.1,83.9,1002.5,NNW,1.3,6.3,N,10.62,22.1,1.8,12.6,6.39,3.0,24.8
"23/09/09",0.0,26.2,32.5,20.9,77.9,1004.0,NW,1.1,4.9,SSW,15.46,21.7,5.3,12.5,9.84,4.2,24.8
"23/09/10",2.2,27.0,32.7,21.8,77.6,1005.2,NW,1.1,4.3,SSW,14.39,22.5,4.6,12.5,9.17,4.1,25.1
"23/09/11",6.8,25.2,30.7,22.8,89.0,1005.2,NW,0.8,5.5,SW,9.23,23.1,0.8,12.5,5.55,2.3,25.1
"23/09/12",6.0,25.5,33.2,21.9,87.7,1006.2,NW,0.8,5.5,ESE,11.03,23.2,2.2,12.4,6.88,2.7,24.9
"23/09/13",0.2,27.2,33.0,21.3,78.5,1007.0,NW,0.8,4.9,SSW,15.53,22.8,5.6,12.4,10.05,4.1,25.2
"23/09/14",0.0,27.4,32.2,22.3,78.2,1007.2,NW,0.8,4.3,WSW,11.54,23.1,2.7,12.3,7.16,3.4,25.6
"23/09/15",0.0,28.8,33.7,25.0,79.4,1008.1,NNW,0.9,4.9,SW,13.62,24.7,4.3,12.3,8.97,3.9,26.2
"23/09/16",0.0,28.8,35.5,23.2,72.6,1008.8,WNW,1.0,5.5,SW,18.74,22.9,8.2,12.3,12.31,5.3,26.5
"23/09/17",0.0,27.5,34.1,22.3,75.9,1007.8,NW,1.0,8.1,SSW,11.68,22.6,2.9,12.2,7.14,3.6,25.8
"23/09/18",2.6,28.0,34.2,24.0,76.7,1008.9,NNW,1.0,4.9,SSW,15.62,23.3,5.9,12.2,10.11,4.4,26.1